FW0810 Weather Reports


time (UTC)temp
F
wind
direction
speed
knots
gust
knots
rain 1hr
in
rain 24hr
in
rain mn
in
humidity
%
barometer
mb
20260505112941 62 336 0.9 5.2 0.00 0.06 0.06 77 1018.5
20260505112438 62 262 0.0 2.6 0.00 0.06 0.06 78 1018.5
20260505111938 62 259 0.9 10.4 0.00 0.06 0.06 78 1018.5
20260505111439 62 105 0.9 10.4 0.00 0.06 0.06 77 1018.6
20260505110938 62 1 0.9 5.2 0.00 0.06 0.06 78 1018.6
20260505110438 62 239 0.9 6.1 0.00 0.06 0.06 79 1018.5
20260505101928 61 255 0.0 2.6 0.00 0.06 0.06 81 1018.7
20260505101426 61 255 0.9 4.3 0.00 0.06 0.06 81 1018.7
20260505100926 60 269 0.9 5.2 0.00 0.06 0.06 80 1018.7
20260505100438 60 72 0.0 5.2 0.00 0.06 0.06 82 1018.6
20260505095422 60 20 0.0 0.9 0.00 0.06 0.06 84 1018.6
20260505094922 60 11 0.0 3.5 0.00 0.06 0.06 84 1018.7
20260505094420 60 100 0.9 5.2 0.00 0.06 0.06 84 1018.7
20260505093919 59 358 1.7 5.2 0.00 0.06 0.06 84 1018.7
20260505093417 60 75 1.7 4.3 0.00 0.06 0.06 84 1018.9
20260505091353 60 91 0.0 1.7 0.00 0.06 0.06 85 1018.6
20260505090848 59 91 0.0 4.3 0.00 0.06 0.06 85 1018.5
20260505090343 59 93 0.0 4.3 0.00 0.06 0.06 85 1018.6
20260505085838 59 84 0.0 5.2 0.00 0.06 0.06 85 1018.6
20260505085331 59 84 0.9 5.2 0.00 0.06 0.06 86 1018.6
20260505084823 59 112 1.7 5.2 0.00 0.06 0.06 85 1018.5
20260505084318 59 77 0.9 5.2 0.00 0.06 0.06 86 1018.5
20260505083812 59 105 0.9 3.5 0.00 0.06 0.06 86 1018.5
20260505082801 58 203 0.0 4.3 0.00 0.06 0.06 86 1018.4
20260505082251 58 89 0.9 6.1 0.00 0.06 0.06 87 1018.4
20260505080733 58 84 0.9 3.5 0.00 0.06 0.06 87 1018.3
20260505080227 58 94 0.9 3.5 0.00 0.06 0.06 87 1018.5
20260505075721 58 94 0.9 6.1 0.00 0.06 0.06 86 1018.3
20260505075216 58 84 0.9 6.1 0.00 0.06 0.06 86 1018.5
20260505074709 58 88 1.7 5.2 0.00 0.06 0.06 87 1018.5
20260505074206 58 72 0.9 4.3 0.00 0.06 0.06 87 1018.3
20260505073659 58 62 0.0 3.5 0.00 0.06 0.06 87 1018.4
20260505072139 58 273 0.9 4.3 0.00 0.06 0.06 87 1018.6
20260505071635 58 97 0.0 4.3 0.00 0.06 0.06 87 1018.5
20260505071127 58 82 0.0 0.0 0.00 0.06 0.06 88 1018.6
20260505070621 57 82 0.9 4.3 0.00 0.06 0.06 88 1018.5
20260505070118 57 82 0.9 4.3 0.00 0.06 0.06 88 1018.6
20260505065612 57 82 0.0 3.5 0.00 0.06 0.06 88 1018.4
20260505065109 57 79 0.0 2.6 0.00 0.06 0.06 88 1018.6
20260505064609 57 86 0.0 1.7 0.00 0.06 0.06 88 1018.5
20260505063607 57 112 0.0 0.9 0.01 0.06 0.06 88 1018.4
20260505063107 57 113 0.0 0.9 0.01 0.06 0.06 88 1018.4
20260505062103 56 28 0.0 3.5 0.01 0.06 0.06 88 1018.5
20260505061603 56 13 0.0 4.3 0.01 0.06 0.06 88 1018.4
20260505061102 56 55 0.0 4.3 0.01 0.06 0.06 89 1018.3
20260505060111 56 67 0.0 4.3 0.01 0.06 0.06 89 1018.2
20260505055555 56 64 0.0 4.3 0.01 0.06 0.06 89 1018.3
20260505055053 56 91 0.0 0.0 0.01 0.06 0.06 90 1018.2
20260505054051 56 99 0.0 0.0 0.02 0.06 0.06 89 1018.4
20260505053049 56 99 0.0 0.0 0.01 0.06 0.06 90 1018.3
20260505052602 56 102 0.0 0.0 0.01 0.06 0.06 90 1018.2
20260505051550 56 102 0.0 0.0 0.01 0.06 0.06 90 1018.2
20260505051043 56 102 0.0 0.0 0.01 0.06 0.06 90 1018.1
20260505050536 56 102 0.0 0.0 0.02 0.06 0.06 90 1018.1
20260505041501 56 96 0.0 1.7 0.04 0.05 0.05 89 1018.1
20260505040959 56 95 0.0 1.7 0.04 0.05 0.05 89 1017.9
20260505040457 56 94 0.0 0.0 0.03 0.04 0.04 88 1017.9
20260505035955 56 94 0.0 0.0 0.02 0.03 0.03 88 1018.1
20260505034954 56 94 0.0 1.7 0.03 0.03 0.03 87 1018.1
20260505034455 56 95 0.0 1.7 0.02 0.02 0.02 87 1018.1
20260505033955 56 95 0.0 1.7 0.02 0.02 0.02 86 1018.1
20260505033454 56 97 0.0 1.7 0.02 0.02 0.02 86 1018.3
20260505032953 57 90 0.0 0.0 0.02 0.02 0.02 86 1018.2
20260505032451 57 90 0.0 0.0 0.02 0.02 0.02 85 1018.3
20260505031949 57 90 0.0 0.0 0.02 0.02 0.02 84 1018.3
20260505031449 57 89 0.0 0.0 0.01 0.01 0.01 83 1018.4
20260505030949 57 89 0.0 0.0 0.01 0.01 0.01 83 1018.5
20260505025945 57 91 0.0 0.0 0.01 0.01 0.01 83 1018.4
20260505025445 57 83 0.0 0.9 0.01 0.01 0.01 84 1018.6
20260505024945 57 96 0.0 0.9 0.00 0.00 0.00 83 1018.7
20260505024443 57 98 0.0 0.0 0.00 0.00 0.00 84 1018.7
20260505023941 57 98 0.0 0.0 0.00 0.00 0.00 84 1018.7
20260505023440 57 98 0.0 0.0 0.00 0.00 0.00 85 1018.8
20260505022942 57 98 0.0 2.6 0.00 0.00 0.00 84 1018.8
20260505022438 57 98 0.0 2.6 0.00 0.00 0.00 85 1018.9
20260505021937 57 161 0.0 0.0 0.00 0.00 0.00 85 1019.0
20260505021439 57 162 0.0 0.0 0.00 0.00 0.00 85 1019.0
20260505020936 57 162 0.0 0.0 0.00 0.00 0.00 85 1018.9
20260505020438 57 162 0.0 0.0 0.00 0.00 0.00 85 1019.0
20260505015937 57 162 0.0 0.0 0.00 0.00 0.00 85 1019.0
20260505014937 57 162 0.0 0.0 0.00 0.00 0.00 85 1019.1
20260505013937 57 162 0.0 0.0 0.00 0.00 0.00 84 1019.0
20260505013438 58 162 0.0 0.0 0.00 0.00 0.00 84 1019.1
20260505012933 58 162 0.0 0.0 0.00 0.00 0.00 83 1019.2
20260505012433 58 162 0.0 0.0 0.00 0.00 0.00 82 1019.2
20260505011933 58 162 0.0 0.0 0.00 0.00 0.00 82 1019.3
20260505011434 58 162 0.0 0.0 0.00 0.00 0.00 81 1019.4
20260505010933 58 162 0.0 0.0 0.00 0.00 0.00 81 1019.4
20260505010433 58 162 0.0 0.0 0.00 0.00 0.00 80 1019.5
20260505005433 58 162 0.0 0.0 0.00 0.00 0.00 80 1019.6
20260505004933 58 162 0.0 0.0 0.00 0.00 0.00 80 1019.6
20260505004429 58 162 0.0 0.0 0.00 0.00 0.00 81 1019.6
20260505003929 58 162 0.0 0.0 0.00 0.00 0.00 81 1019.7
20260505003428 58 162 0.0 0.0 0.00 0.00 0.00 81 1019.7
20260505002933 58 162 0.0 0.0 0.00 0.00 0.00 81 1019.7
20260505002428 58 162 0.0 0.0 0.00 0.00 0.00 81 1019.6
20260505001427 58 162 0.0 0.0 0.00 0.00 0.00 82 1019.8
20260505000925 58 162 0.0 0.0 0.00 0.00 0.00 81 1019.8
20260505000427 59 162 0.0 0.0 0.00 0.00 0.00 80 1020.0
20260504235921 59 162 0.0 0.0 0.00 0.00 0.00 79 1020.2
20260504235419 59 162 0.0 0.0 0.00 0.00 0.00 78 1020.3
20260504234921 59 162 0.0 0.0 0.00 0.00 0.00 78 1020.4
20260504233907 59 201 0.0 0.0 0.00 0.00 0.00 76 1020.6
20260504232854 59 212 0.0 0.0 0.00 0.00 0.00 76 1020.6
20260504232348 59 212 0.0 0.0 0.00 0.00 0.00 77 1020.6
20260504231844 59 219 0.0 0.0 0.00 0.00 0.00 76 1020.7
20260504231337 59 219 0.0 0.0 0.00 0.00 0.00 77 1020.7
20260504230830 60 219 0.0 0.0 0.00 0.00 0.00 76 1020.8
20260504230327 60 219 0.0 0.0 0.00 0.00 0.00 76 1020.9
20260504225829 60 219 0.0 0.0 0.00 0.00 0.00 76 1020.8
20260504225327 60 219 0.0 0.0 0.00 0.00 0.00 75 1020.9
20260504224825 60 219 0.0 0.0 0.00 0.00 0.00 75 1020.9
20260504224323 60 219 0.0 0.0 0.00 0.00 0.00 74 1021.0
20260504223823 60 219 0.0 0.0 0.00 0.00 0.00 74 1020.9
20260504223323 60 219 0.0 0.0 0.00 0.00 0.00 73 1021.0
20260504222821 60 219 0.0 0.0 0.00 0.00 0.00 73 1021.0
20260504221817 60 219 0.0 0.0 0.00 0.00 0.00 73 1021.1
20260504221315 60 219 0.0 0.0 0.00 0.00 0.00 73 1021.1
20260504220812 60 219 0.0 0.0 0.00 0.00 0.00 73 1021.2
20260504220311 60 219 0.0 0.0 0.00 0.00 0.00 73 1021.2
20260504215810 60 219 0.0 0.0 0.00 0.00 0.00 73 1021.1
20260504215310 60 219 0.0 0.0 0.00 0.00 0.00 73 1021.1
20260504214307 60 219 0.0 0.0 0.00 0.00 0.00 73 1021.1
20260504213307 60 219 0.0 0.0 0.00 0.00 0.00 71 1021.2
20260504212807 60 223 0.0 0.0 0.00 0.00 0.00 72 1021.3
20260504212320 60 223 0.0 0.0 0.00 0.00 0.00 72 1021.2
20260504211808 60 223 0.0 0.0 0.00 0.00 0.00 72 1021.2
20260504211307 60 224 0.0 0.0 0.00 0.00 0.00 72 1021.2
20260504210808 60 224 0.0 0.0 0.00 0.00 0.00 72 1021.2
20260504210320 60 224 0.0 0.0 0.00 0.00 0.00 72 1021.2
20260504205806 61 224 0.0 0.0 0.00 0.00 0.00 71 1021.3
20260504205309 61 224 0.0 0.0 0.00 0.00 0.00 69 1021.3
20260504204804 61 224 0.0 0.0 0.00 0.00 0.00 69 1021.5
20260504204303 61 224 0.0 0.0 0.00 0.00 0.00 69 1021.3
20260504203802 61 224 0.0 0.0 0.00 0.00 0.00 69 1021.3
20260504203303 61 224 0.0 0.0 0.00 0.00 0.00 69 1021.4
20260504202804 61 224 0.0 0.0 0.00 0.00 0.00 69 1021.5
20260504201802 62 224 0.0 0.0 0.00 0.00 0.00 68 1021.5
20260504201304 62 224 0.0 0.0 0.00 0.00 0.00 67 1021.5
20260504200301 62 224 0.0 0.0 0.00 0.00 0.00 65 1021.2
20260504195759 62 224 0.0 0.0 0.00 0.00 0.00 65 1021.1
20260504195300 62 224 0.0 0.0 0.00 0.00 0.00 64 1021.2
20260504194759 63 224 0.0 0.0 0.00 0.00 0.00 64 1021.0
20260504194300 63 224 0.0 0.0 0.00 0.00 0.00 62 1021.2
20260504193759 63 224 0.0 0.0 0.00 0.00 0.00 62 1021.2
20260504193259 63 224 0.0 0.0 0.00 0.00 0.00 61 1021.2
20260504192802 63 224 0.0 0.0 0.00 0.00 0.00 61 1021.0
20260504192320 64 224 0.0 0.0 0.00 0.00 0.00 61 1021.0
20260504191257 64 224 0.0 0.0 0.00 0.00 0.00 60 1020.8
20260504190756 64 224 0.0 0.0 0.00 0.00 0.00 59 1020.8
20260504185756 65 224 0.0 0.0 0.00 0.00 0.00 58 1020.7
20260504184252 65 280 0.0 4.3 0.00 0.00 0.00 57 1020.8
20260504183251 65 273 0.0 0.0 0.00 0.00 0.00 58 1020.7
20260504182748 65 272 0.0 2.6 0.00 0.00 0.00 58 1020.8
20260504182249 65 272 0.0 2.6 0.00 0.00 0.00 58 1020.7
20260504181750 65 171 0.0 1.7 0.00 0.00 0.00 58 1020.8
20260504181248 65 235 0.0 0.9 0.00 0.00 0.00 58 1020.8
20260504180745 65 191 0.0 3.5 0.00 0.00 0.00 59 1020.7
20260504180245 65 195 0.0 3.5 0.00 0.00 0.00 58 1020.7
20260504175744 66 147 0.0 0.0 0.00 0.00 0.00 58 1020.6
20260504175246 66 173 0.0 0.0 0.00 0.00 0.00 57 1020.6
20260504174742 66 173 0.0 0.0 0.00 0.00 0.00 56 1020.5
20260504174242 67 173 0.0 0.0 0.00 0.00 0.00 55 1020.5
20260504173231 67 172 0.0 0.0 0.00 0.00 0.00 53 1020.5
20260504172728 67 172 0.0 0.0 0.00 0.00 0.00 53 1020.5
20260504172229 67 171 0.0 0.0 0.00 0.00 0.00 52 1020.6
20260504171728 67 212 0.0 1.7 0.00 0.00 0.00 52 1020.6
20260504171230 67 272 0.0 1.7 0.00 0.00 0.00 52 1020.6
20260504170729 67 256 0.0 4.3 0.00 0.00 0.00 52 1020.7
20260504170230 67 170 0.0 4.3 0.00 0.00 0.00 51 1020.6
20260504160227 69 266 0.9 6.1 0.00 0.00 0.00 52 1020.5
20260504150224 70 283 0.9 5.2 0.00 0.00 0.00 60 1020.6
20260504141214 71 180 0.0 2.6 0.00 0.00 0.00 53 1020.7
20260504140716 71 279 0.9 6.1 0.00 0.00 0.00 52 1020.7
20260504140214 71 293 0.9 6.1 0.00 0.00 0.00 51 1020.7
20260504130709 73 146 0.9 3.5 0.00 0.00 0.00 45 1021.2
20260504130204 73 134 0.9 5.2 0.00 0.00 0.00 45 1021.2
20260504120140 70 275 1.7 7.0 0.00 0.00 0.00 51 1021.7